TimeEST,TemperatureF,Dew PointF,Humidity,Sea Level PressureIn,VisibilityMPH,Wind Direction,Wind SpeedMPH,Gust SpeedMPH,PrecipitationIn,Events,Conditions,WindDirDegrees,DateUTC
12:53 AM,37.9,30.0,73,30.09,10.0,South,4.6,-,N/A,,Clear,180,2013-11-16 05:53:00
1:53 AM,37.9,32.0,79,30.09,10.0,South,5.8,-,N/A,,Clear,180,2013-11-16 06:53:00
2:53 AM,39.0,33.1,79,30.09,10.0,South,4.6,-,N/A,,Clear,180,2013-11-16 07:53:00
3:53 AM,41.0,37.0,86,30.09,8.0,South,5.8,-,N/A,,Partly Cloudy,180,2013-11-16 08:53:00
4:53 AM,43.0,37.9,82,30.09,8.0,South,5.8,-,N/A,,Mostly Cloudy,170,2013-11-16 09:53:00
5:09 AM,42.8,37.4,81,30.08,8.0,South,4.6,-,N/A,,Mostly Cloudy,170,2013-11-16 10:09:00
5:53 AM,44.1,39.0,82,30.09,8.0,SSE,4.6,-,N/A,,Mostly Cloudy,160,2013-11-16 10:53:00
6:01 AM,44.6,39.2,81,30.07,8.0,SSE,4.6,-,N/A,,Mostly Cloudy,160,2013-11-16 11:01:00
6:53 AM,45.0,39.9,82,30.09,8.0,SSE,5.8,-,N/A,,Overcast,160,2013-11-16 11:53:00
7:53 AM,46.0,41.0,83,30.10,7.0,South,5.8,-,N/A,,Overcast,180,2013-11-16 12:53:00
8:53 AM,48.0,42.1,80,30.09,7.0,South,5.8,-,N/A,,Overcast,170,2013-11-16 13:53:00
9:53 AM,48.9,44.1,83,30.08,7.0,SSE,8.1,-,N/A,,Overcast,150,2013-11-16 14:53:00
10:53 AM,51.1,45.0,80,30.07,9.0,South,6.9,-,N/A,,Overcast,190,2013-11-16 15:53:00
11:53 AM,53.1,46.0,77,30.05,9.0,South,8.1,-,N/A,,Overcast,180,2013-11-16 16:53:00
12:53 PM,55.9,48.0,75,30.00,9.0,South,12.7,-,N/A,,Overcast,180,2013-11-16 17:53:00
1:53 PM,57.0,46.9,69,29.97,9.0,South,18.4,26.5,N/A,,Overcast,180,2013-11-16 18:53:00
2:53 PM,55.9,46.9,72,29.95,7.0,South,13.8,20.7,N/A,,Overcast,180,2013-11-16 19:53:00
3:53 PM,55.9,46.9,72,29.94,9.0,South,13.8,-,N/A,,Overcast,180,2013-11-16 20:53:00
4:53 PM,55.0,46.9,74,29.94,7.0,South,10.4,18.4,N/A,,Overcast,170,2013-11-16 21:53:00
5:32 PM,55.4,48.2,77,29.92,10.0,South,15.0,24.2,N/A,,Overcast,170,2013-11-16 22:32:00
5:53 PM,55.0,48.0,77,29.93,10.0,South,13.8,20.7,N/A,,Overcast,180,2013-11-16 22:53:00
6:53 PM,55.9,48.9,77,29.91,10.0,South,13.8,24.2,N/A,,Overcast,180,2013-11-16 23:53:00
7:53 PM,57.0,50.0,77,29.89,10.0,South,12.7,23.0,N/A,,Overcast,170,2013-11-17 00:53:00
8:53 PM,57.0,50.0,77,29.87,10.0,South,13.8,21.9,N/A,,Overcast,170,2013-11-17 01:53:00
9:53 PM,59.0,51.1,75,29.84,10.0,South,16.1,26.5,N/A,,Overcast,180,2013-11-17 02:53:00
10:27 PM,57.2,51.8,82,29.83,10.0,South,13.8,23.0,0.00,Rain,Light Rain,180,2013-11-17 03:27:00
10:53 PM,57.9,52.0,81,29.83,10.0,South,12.7,23.0,0.01,,Scattered Clouds,180,2013-11-17 03:53:00
11:24 PM,59.0,51.8,77,29.82,10.0,South,13.8,24.2,N/A,,Overcast,180,2013-11-17 04:24:00
11:53 PM,59.0,53.1,81,29.83,10.0,South,15.0,23.0,0.00,Rain,Light Rain,190,2013-11-17 04:53:00